When you browse on this site, cookies collect data to enhance your experience and personalize the content and advertising you see.
Visit our Privacy Policy to learn more. By continuing to use the site, you agree to this use of cookies and data.
  • In Belgien
  • Länderverzeichnis
  • Für 7 Tage
  • Wassertemperatur
  • Wetterkarte
  • Widgets
  • user-avatar
    Anmelden

    Stündliche Wetter Tukupita

    Heute, 7 April, Dienstag

    Zeit Temperatur Niederschläge Wind Luftdruck Luftfeuchtigkeit
    00:00 +25°C° 0 mm 1 m/S 759 mmHg 90%
    01:00 +25°C° 0 mm 1 m/S 759 mmHg 93%
    02:00 +24°C° 0 mm 1 m/S 758 mmHg 97%
    03:00 +24°C° 0 mm 1 m/S 758 mmHg 97%
    04:00 +24°C° 0 mm 1 m/S 758 mmHg 98%
    05:00 +24°C° 0 mm 1 m/S 758 mmHg 98%
    06:00 +25°C° 0 mm 1 m/S 759 mmHg 90%
    07:00 +27°C° 0 mm 2 m/S 759 mmHg 82%
    08:00 +29°C° 0 mm 2 m/S 760 mmHg 74%
    09:00 +30°C° 0 mm 2 m/S 760 mmHg 68%
    10:00 +31°C° 0 mm 2 m/S 760 mmHg 62%
    11:00 +32°C° 0 mm 2 m/S 760 mmHg 56%
    12:00 +34°C° 0 mm 2 m/S 759 mmHg 52%
    13:00 +36°C° 0 mm 3 m/S 758 mmHg 48%
    14:00 +37°C° 0 mm 3 m/S 757 mmHg 44%
    15:00 +36°C° 0 mm 3 m/S 757 mmHg 47%
    16:00 +35°C° 0 mm 3 m/S 757 mmHg 50%
    17:00 +34°C° 0 mm 3 m/S 756 mmHg 53%
    18:00 +31°C° 0 mm 3 m/S 757 mmHg 59%
    19:00 +30°C° 0 mm 2 m/S 757 mmHg 65%
    20:00 +28°C° 0 mm 2 m/S 758 mmHg 71%
    21:00 +27°C° 0 mm 2 m/S 758 mmHg 76%
    22:00 +26°C° 0 mm 1 m/S 759 mmHg 82%
    23:00 +25°C° 0 mm 1 m/S 759 mmHg 87%

    Morgen, 8 April, Mittwoch

    Zeit Temperatur Niederschläge Wind Luftdruck Luftfeuchtigkeit
    00:00 +25°C° 0 mm 1 m/S 759 mmHg 90%
    01:00 +24°C° 0 mm 1 m/S 758 mmHg 93%
    02:00 +24°C° 0 mm 1 m/S 758 mmHg 97%
    03:00 +24°C° 0 mm 1 m/S 758 mmHg 96%
    04:00 +25°C° 0 mm 1 m/S 758 mmHg 95%
    05:00 +25°C° 0 mm 1 m/S 758 mmHg 94%
    06:00 +26°C° 0 mm 2 m/S 758 mmHg 88%
    07:00 +27°C° 0 mm 2 m/S 759 mmHg 82%
    08:00 +28°C° 0 mm 2 m/S 759 mmHg 77%
    09:00 +29°C° 0 mm 2 m/S 759 mmHg 71%
    10:00 +31°C° 0 mm 2 m/S 759 mmHg 65%
    11:00 +32°C° 0 mm 2 m/S 759 mmHg 58%
    12:00 +34°C° 0 mm 2 m/S 758 mmHg 55%
    13:00 +34°C° 0 mm 2 m/S 757 mmHg 53%
    14:00 +35°C° 0 mm 2 m/S 756 mmHg 50%
    15:00 +35°C° 0 mm 2 m/S 756 mmHg 47%
    16:00 +36°C° 0 mm 3 m/S 755 mmHg 45%
    17:00 +36°C° 0 mm 3 m/S 755 mmHg 43%
    18:00 +34°C° 0 mm 3 m/S 756 mmHg 51%
    19:00 +31°C° 0 mm 3 m/S 756 mmHg 59%
    20:00 +28°C° 0 mm 3 m/S 757 mmHg 66%
    21:00 +27°C° 0 mm 2 m/S 758 mmHg 73%
    22:00 +26°C° 0 mm 2 m/S 758 mmHg 79%
    23:00 +26°C° 0 mm 2 m/S 759 mmHg 86%

    übermorgen, 9 April, Donnerstag

    Zeit Temperatur Niederschläge Wind Luftdruck Luftfeuchtigkeit
    00:00 +25°C° 0 mm 1 m/S 758 mmHg 89%
    01:00 +24°C° 0 mm 1 m/S 758 mmHg 92%
    02:00 +24°C° 0 mm 1 m/S 757 mmHg 95%
    03:00 +24°C° 0 mm 1 m/S 757 mmHg 95%
    04:00 +24°C° 0 mm 1 m/S 757 mmHg 96%
    05:00 +24°C° 0 mm 1 m/S 757 mmHg 96%
    06:00 +25°C° 0 mm 1 m/S 758 mmHg 88%
    07:00 +27°C° 0 mm 2 m/S 758 mmHg 80%
    08:00 +29°C° 0 mm 2 m/S 759 mmHg 72%
    09:00 +31°C° 0 mm 2 m/S 758 mmHg 63%
    10:00 +34°C° 0 mm 2 m/S 758 mmHg 55%
    11:00 +36°C° 0 mm 3 m/S 758 mmHg 46%
    12:00 +37°C° 0 mm 3 m/S 757 mmHg 44%
    13:00 +37°C° 0 mm 3 m/S 756 mmHg 42%
    14:00 +38°C° 0 mm 3 m/S 755 mmHg 40%
    15:00 +37°C° 0 mm 3 m/S 755 mmHg 42%
    16:00 +37°C° 0 mm 3 m/S 755 mmHg 43%
    17:00 +36°C° 0 mm 3 m/S 754 mmHg 44%
    18:00 +34°C° 0 mm 3 m/S 755 mmHg 53%
    19:00 +31°C° 0 mm 3 m/S 756 mmHg 61%
    20:00 +29°C° 0 mm 3 m/S 756 mmHg 70%
    21:00 +28°C° 0 mm 3 m/S 757 mmHg 76%
    22:00 +27°C° 0 mm 2 m/S 757 mmHg 81%
    23:00 +26°C° 0 mm 2 m/S 758 mmHg 87%

    10 April, Freitag

    Zeit Temperatur Niederschläge Wind Luftdruck Luftfeuchtigkeit
    00:00 +25°C° 0 mm 2 m/S 757 mmHg 90%
    01:00 +25°C° 0 mm 1 m/S 757 mmHg 93%
    02:00 +25°C° 0 mm 1 m/S 757 mmHg 96%
    03:00 +25°C° 0 mm 1 m/S 757 mmHg 94%
    04:00 +25°C° 0 mm 1 m/S 757 mmHg 92%
    05:00 +26°C° 0 mm 1 m/S 757 mmHg 90%
    06:00 +26°C° 0.1 mm 1 m/S 758 mmHg 86%
    07:00 +27°C° 0.1 mm 2 m/S 758 mmHg 82%
    08:00 +28°C° 0.1 mm 2 m/S 759 mmHg 78%
    09:00 +30°C° 0.1 mm 2 m/S 759 mmHg 69%
    10:00 +32°C° 0.1 mm 2 m/S 759 mmHg 60%
    11:00 +35°C° 0.1 mm 2 m/S 759 mmHg 50%
    12:00 +36°C° 0 mm 2 m/S 758 mmHg 47%
    13:00 +36°C° 0 mm 3 m/S 757 mmHg 44%
    14:00 +37°C° 0 mm 3 m/S 756 mmHg 41%
    15:00 +37°C° 0 mm 3 m/S 756 mmHg 42%
    16:00 +36°C° 0 mm 3 m/S 756 mmHg 42%
    17:00 +36°C° 0 mm 3 m/S 756 mmHg 43%
    18:00 +34°C° 0 mm 3 m/S 756 mmHg 51%
    19:00 +31°C° 0 mm 3 m/S 757 mmHg 59%
    20:00 +28°C° 0 mm 3 m/S 757 mmHg 68%
    21:00 +27°C° 0 mm 2 m/S 758 mmHg 74%
    22:00 +26°C° 0 mm 2 m/S 758 mmHg 81%
    23:00 +25°C° 0 mm 2 m/S 759 mmHg 87%

    11 April, Samstag

    Zeit Temperatur Niederschläge Wind Luftdruck Luftfeuchtigkeit
    00:00 +24°C° 0 mm 1 m/S 759 mmHg 91%
    01:00 +24°C° 0 mm 1 m/S 758 mmHg 94%
    02:00 +23°C° 0 mm 1 m/S 758 mmHg 98%
    03:00 +23°C° 0 mm 1 m/S 758 mmHg 98%
    04:00 +23°C° 0 mm 1 m/S 758 mmHg 98%
    05:00 +23°C° 0 mm 1 m/S 758 mmHg 98%
    06:00 +25°C° 0 mm 1 m/S 759 mmHg 88%
    07:00 +27°C° 0 mm 2 m/S 759 mmHg 79%
    08:00 +28°C° 0 mm 2 m/S 760 mmHg 69%
    09:00 +30°C° 0 mm 2 m/S 760 mmHg 62%
    10:00 +32°C° 0 mm 2 m/S 760 mmHg 56%
    11:00 +35°C° 0 mm 2 m/S 760 mmHg 49%
    12:00 +36°C° 0 mm 2 m/S 759 mmHg 44%
    13:00 +37°C° 0 mm 3 m/S 758 mmHg 39%
    14:00 +39°C° 0 mm 3 m/S 757 mmHg 34%
    15:00 +38°C° 0 mm 3 m/S 757 mmHg 36%
    16:00 +37°C° 0 mm 3 m/S 756 mmHg 37%
    17:00 +37°C° 0 mm 4 m/S 756 mmHg 38%
    18:00 +34°C° 0 mm 3 m/S 757 mmHg 48%
    19:00 +30°C° 0 mm 3 m/S 757 mmHg 58%
    20:00 +28°C° 0 mm 3 m/S 758 mmHg 68%
    21:00 +26°C° 0 mm 2 m/S 758 mmHg 75%
    22:00 +25°C° 0 mm 2 m/S 759 mmHg 83%
    23:00 +24°C° 0 mm 1 m/S 759 mmHg 91%

    12 April, Sonntag

    Zeit Temperatur Niederschläge Wind Luftdruck Luftfeuchtigkeit
    00:00 +23°C° 0 mm 1 m/S 759 mmHg 93%
    01:00 +23°C° 0 mm 1 m/S 759 mmHg 96%
    02:00 +22°C° 0 mm 1 m/S 759 mmHg 98%
    03:00 +22°C° 0 mm 1 m/S 759 mmHg 98%
    04:00 +22°C° 0 mm 1 m/S 759 mmHg 98%
    05:00 +22°C° 0 mm 1 m/S 759 mmHg 98%
    06:00 +24°C° 0 mm 1 m/S 760 mmHg 88%
    07:00 +26°C° 0 mm 2 m/S 760 mmHg 78%
    08:00 +28°C° 0 mm 3 m/S 761 mmHg 68%
    09:00 +30°C° 0 mm 3 m/S 761 mmHg 60%
    10:00 +32°C° 0 mm 2 m/S 761 mmHg 51%
    11:00 +35°C° 0 mm 2 m/S 760 mmHg 42%
    12:00 +36°C° 0 mm 3 m/S 760 mmHg 40%
    13:00 +37°C° 0 mm 3 m/S 759 mmHg 37%
    14:00 +38°C° 0 mm 3 m/S 758 mmHg 34%
    15:00 +38°C° 0 mm 3 m/S 758 mmHg 35%
    16:00 +37°C° 0 mm 3 m/S 757 mmHg 36%
    17:00 +36°C° 0 mm 4 m/S 757 mmHg 37%
    18:00 +34°C° 0 mm 3 m/S 758 mmHg 47%
    19:00 +30°C° 0 mm 3 m/S 758 mmHg 57%
    20:00 +28°C° 0 mm 3 m/S 759 mmHg 67%
    21:00 +27°C° 0 mm 2 m/S 759 mmHg 73%
    22:00 +25°C° 0 mm 2 m/S 760 mmHg 79%
    23:00 +24°C° 0 mm 1 m/S 760 mmHg 86%
    Mehr zeigen